Погода Kemi I

Погода Kemi I : погода сейчас, прогноз погоды и архив. Всё, что Вы хотите узнать о погоде Kemi I!

Поиск расширенной информации на нашем сайте:

Другие новости

Новости СМИ2

Главная страница сайта

Новости сайта

03.07.2017

Напоминаем, что на нашем специализированном сайте Метеоцентр.Азия вы можете получить высокодетализированные автоматические прогнозы погоды по пунктам России, СНГ и мира в авиационном формате (включающие направление и скорость ветра, видимость, явления погоды, количество и форму облачности, нижнюю и верхнюю границу облачности).


Погода Kemi I - сегодня

Время (UTC), дата Ветер
(°,м/с) 
Видим.   Явления Облачность Т
(°С)
Тd
(°С)
f(%) Тe
(°С)
Pmin
(гПа)
dP
(гПа)
Po
(мм)
O2
(г/м3)
Тmin Tmax R s Состояние
почвы
21 11.11.18 170 (Ю) 12  н/о    н/о 
+5 +2.9 86 +1  1021.3  -1  764  302           
00 12.11.18 180 (Ю) 12  н/о    н/о 
+5 +2.7 85 +1  1020.4  -1  764  302           
06 12.11.18 160 (Ю) 12  н/о    н/о 
+5.1 +3.6 90 +1  1018.6  -1  762  301  +4.7  +5.4       
09 12.11.18 160 (Ю) 13  н/о    н/о 
+5.3 +4 91 +1  1017.6  -1  762  300           
12 12.11.18 180 (Ю) 13  н/о    н/о 
+5.5 +3.6 88 +1  1015.6  -1.9  760  300           
18 12.11.18 170 (Ю) 15  н/о    н/о 
+5.3 +4.1 92 +1  1011.5  -2.1  757  299  +5  +5.6       
21 12.11.18 180 (Ю) 14  н/о    н/о 
+5.7 +4.8 94 +1  1009.4  -2.1  755  297           
00 13.11.18 190 (Ю) 13  н/о    н/о 
+6.6 +5.6 93 +3  1007.7  -1.6  754  296           
03 13.11.18 180 (Ю) 12  н/о    н/о 
+6.6 +6.1 97 +3  1006  -1.8  753  295           
06 13.11.18 210 (ЮЗ) 12  н/о    н/о 
+7 +6.1 94 +3  1004.3  -1.7  752  294  +5.1  +7.2       
09 13.11.18 210 (ЮЗ) 10  н/о    н/о 
+6.8 +5.9 94 +4  1003.8  -0.5  751  294           
18 13.11.18 270 (З) н/о    н/о 
+5.6 +5.2 97 +3  1005  1.2  752  296  +5.2  +7.1       
00 14.11.18 310 (СЗ) н/о    н/о 
+3.5 +3.2 98 +1  1008.5  1.9  755  300           
03 14.11.18 340 (С) н/о    н/о 
+1.9 +1 94 -2  1010.2  1.6  756  302           
06 14.11.18 350 (С) н/о    н/о 
+1.3 +0.7 96 -1  1012.4  2.1  758  304  +1.1  +6.1       
12 14.11.18 300 (СЗ) н/о    н/о 
+1.1 +0.9 99 1017  2.1  761  305           
18 14.11.18 160 (Ю) н/о    н/о 
+4.4 +4.2 99 +2  1018.6  0.4  762  302  +0.7  +4.4       
00 15.11.18 180 (Ю) 12  н/о    н/о 
+4.2 +3.9 98 1018.3  -0.8  762  302           
03 15.11.18 200 (Ю) 12  н/о    н/о 
+5.7 +4 89 +2  1017.7  -0.6  762  300           
06 15.11.18 200 (Ю) 16  н/о    н/о 
+6 +4 87 +1  1016  -1.7  760  299  +3.8  +6.2       
09 16.11.18 200 (Ю) 12  н/о    н/о 
+6.2 +6 99 +2  1021.1  764  300           
12 16.11.18 210 (ЮЗ) 15  н/о    н/о 
+5.9 +4.7 92 +1  1019.7  -1.4  763  300           
15 16.11.18 240 (ЮЗ) 10  н/о    н/о 
+6.2 +4.8 91 +3  1020.8  1.2  764  300           
18 16.11.18 230 (ЮЗ) 12  н/о    н/о 
+6.8 +5.2 90 +3  1020.8  764  300  +5.2  +7.4       
12 17.11.18 290 (З) 15  н/о    н/о 
+7.6 +2.5 70 +4  1025.4  1.5  767  301           
Время (UTC), дата Ветер
(°,м/с) 
Видим.   Явления Облачность Т
(°С)
Тd
(°С)
f(%) Тe
(°С)
Pmin
(гПа)
dP
(гПа)
Po
(мм)
O2
(г/м3)
Тmin Tmax R s Состояние
почвы

Для получения пояснительной информации подведите курсор к названию столбца.

ПОГОДА Kemi I - архив

Всё, что Вы хотите узнать о погоде Kemi I - удобно и подробно!

Выберите нужную дату (начиная с 1 января 2015* года) и нажмите кнопку "Найти".
Будут отображены архивные сводки погоды по пункту Kemi I, начиная с указанной даты.


Отображать данные в формате CSV (для использования в таблицах Excel)


Внимание! Наш архив погоды предназначен исключительно для личного некоммерческого использования в познавательных целях. Если Вам необходимы официальные справки о состоянии погоды (для производственных, юридических, коммерческих и т.п. целей), обращайтесь в органы Росгидромета.

*Примечание: данная дата относится к архиву по метеостанциям СССР (Россия, СНГ, Балтия).
Архив по метеостанциям Зарубежной Европы и Азии (кроме Китая) хранится 10 дней, по другим регионам земного шара (Китай, Африка, Америка, Австралия, Океания) - 1 день.

Kemi I - район местоположения метеостанции


Название, широта, долгота, высота метеостанции:
Kemi I 65.4°ш. 24.1°д. 13 м над ур. моря [Finland]

Дополнительная информация

В oтличие oт бoльшинства пoгoдных сайтoв мы публикуем пoдрoбную метеoинфoрмацию в детальнoм прoфессиoнальнoм фoрмате.

Характеристики температуры и влажнoсти вoздуха измеряются на высoте 2 м в тени вдали oт зданий и деревьев.
Скoрoсть ветра измеряется на высoте 10 м (на урoвне рoста челoвека скoрoсть ветра ниже в 1.5-2 раза). Если метеoстанция нахoдится в гoрoде или в лесу, тo скoрoсть ветра занижена на 2-4 м/с пo сравнению с oткрытым местoм. Скoрoсть ветра над акватoриями крупных рек и oзёр, а также на вершинах хoлмoв на 2-5 м/с выше, чем в oбычных услoвиях.
Атмoсфернoе давление в разных тoчках местнoсти мoжет значительнo oтличаться oт давления на метеoстанции, в зависимoсти oт услoвий рельефа (при пoдъёме на 10 м давление пoнижается примернo на 1 мм рт.ст.).